Zurück zum Katalog

STARLINK-2635

AktivKommunikationVLEO
NORAD 48355·PAYLOAD·🇺🇸 United States

Gestartet May 4, 2021 von Cape Canaveral Space Force Station

Loading…

Nächste Überflüge (nächste 24 Stunden)

TLE

AktuellSource: CelesTrak SupGP

Epoche: Sep 14, 2026, 21:43 UTC

1 48355C 21038C   26257.90534722 -.00007627  00000+0 -24524-3 0  2573
2 48355  53.1609 197.5411 0001455  90.8529 321.0512 15.31707937    15

Verfolge STARLINK-2635 in Echtzeit mit AllMySat

Download on the App Store